Tracking 27122 objects as of 25-Mar-2023
HD Live streaming from Space Station
objects crossing your sky now

GAOFEN 3 DEB

Track GAOFEN 3 DEB now!
10-day predictions


NORAD ID: 42679
Int'l Code: 2016-049D
Perigee: 742.8 km
Apogee: 752.0 km
Inclination: 98.4 °
Period: 99.6 minutes
Semi major axis: 7118 km
RCS: Unknown
Launch date: August 9, 2016
Source: People's Republic of China (PRC)
Launch site: Jiuquan Satellite Launch Center, China (JSC)

Note: This is SATELLITE DEBRIS
Your satellite tracking list
Your tracking list is empty




NASA's NSSDC Master Catalog

Two Line Element Set (TLE):
1 42679U 16049D   23083.87075989  .00000559  00000-0  17071-3 0  9995
2 42679  98.3559  99.1229 0006418 353.1234   6.9868 14.45542872349242
Source of the keplerian elements: AFSPC